Haro Strait: Past 24 Hour Conditions

 

Port Hardy Airport

07:00 PM PST 27 November 2014
This table is a summary of hourly weather conditions for the past 24 hours.
Date / Time
(PST)
Wind(knots) Conditions Visibility(km) Pressure(kPa) Air tempC) Relative humidity(%) Dew pointC)
27 November 2014
19:00 WNW 7 gust 15 Light Rainshower 10 100.1 6 95 6
18:00 SSW 6 Light Rainshower 8 100.1 6 96 6
17:00 SW 5 Light Rainshower 6 100.1 7 95 6
16:00 SW 3 Light Rainshower 10 100.0 6 98 6
15:00 WNW 5 Light Rainshower 10 100.0 7 93 6
14:00 NW 11 gust 19 Rainshower 5 99.9 7 95 6
13:00 NW 11 Rainshower 5 99.9 7 98 7
12:00 NW 10 Heavy Rainshower 5 99.9 8 98 8
11:00 N 9 Rain 5 99.9 9 100 9
10:00 N 1 Rain 5 99.9 10 100 10
9:00 SE 2 Rain 6 99.9 9 100 9
8:00 SE 2 Rain 10 99.9 9 100 9
7:00 W 5 Rain 13 100.0 9 99 9
6:00 WNW 5 Rain 13 100.0 10 98 10
5:00 SE 4 Light Rain 13 100.1 9 100 9
4:00 SE 2 Light Rain 13 100.1 9 100 9
3:00 SE 5 Light Rain 13 100.2 9 99 9
2:00 SE 5 Light Rain 13 100.2 9 100 9
1:00 E 6 Light Rain 13 100.2 9 100 9
0:00 WSW 2 Light Rain 13 100.2 9 100 9
26 November 2014
23:00 N 1 Light Rain 13 100.1 9 98 8
22:00 SE 8 gust 23 Light Rain 13 100.1 8 97 8
21:00 ESE 22 gust 28 Light Rain 16 100.0 8 97 8
20:00 ESE 20 gust 27 Light Rain 16 100.0 8 96 7
19:00 ESE 20 gust 26 Light Rainshower 16 100.1 8 95 7
 
Map of Pacific - South Coast marine weather areas Tsawwassen Ferry Terminal South Nomad - 46036 Sentry Shoal - 46131 South Brooks - 46132 Halibut Bank - 46146 South Moresby - 46147 South Hecate Strait - 46185 West Sea Otter - 46204 La Perouse Bank - 46206 East Dellwood - 46207 Discovery Island Esquimalt Harbour Kelp Reefs Malahat Race Rocks Lightstation Saturna Island Sheringham Point University of Victoria Victoria Gonzales Victoria Int'l Airport Ballenas Islands Campbell River Airport Comox Airport Entrance Island Fanny Island Nanaimo Airport Port Hardy Airport Sisters Islets Estevan Point Sartine Island Solander Island Tofino Airport Grief Point Powell River Airport Sechelt Cape St.James Bella Bella Airport Bella Coola Airport Cathedral Point Herbert Island Point Atkinson Sand Heads Lightstation Vancouver Harbour Vancouver Int'l Airport West Vancouver Port Alberni Howe Sound - Pam Rocks Squamish Airport